Rogers City, MI

3:39 PM EDT on March 27, 2017 (GMT -0400)
Presque Isle County

Weather History for KPZQ - March, 2014

Change the Weather History Date:

Friday, March 14, 2014

  Actual Average (KAPN) Record (KAPN)
Temperature  
Mean Temperature 37 °F -  
Max Temperature 49 °F 38 °F 75 °F (1995)
Min Temperature 25 °F 19 °F -6 °F (2017)
Degree Days  
Heating Degree Days 28    
Moisture  
Dew Point 30 °F    
Average Humidity 81    
Maximum Humidity 98    
Minimum Humidity 52    
Precipitation  
Precipitation 0.00 in - - ()
Sea Level Pressure  
Sea Level Pressure 29.49 in    
Wind  
Wind Speed 10 mph (SW)    
Max Wind Speed 18 mph    
Max Gust Speed 29 mph    
Visibility 7 miles    
Events Rain , Snow    
Averages and records for this station are not official NWS values.
T = Trace of Precipitation, MM = Missing Value Source: NWS Daily Summary

Daily Weather History Graph

Daily Weather History Graph

Search for Another Location

Airport or City:

Trip Planner

Search our weather history database for the weather conditions in past years. The results will help you decide how hot, cold, wet, or windy it might be!

Date:

Astronomy

Mar. 14, 2014 Rise Set
Actual Time 7:49 AM EDT 7:39 PM EDT
Civil Twilight 7:20 AM EDT 8:09 PM EDT
Nautical Twilight 6:45 AM EDT 8:43 PM EDT
Astronomical Twilight 6:10 AM EDT 9:18 PM EDT
Moon 5:57 PM EDT (3/14) 6:33 AM EDT (3/14)
Length of Visible Light 12h 49m
Length of Day
11h 50m
Waxing Gibbous, 96% of the Moon is Illuminated
Mar 14
Waxing Gibbous
Mar 16
Full
Mar 23
Last Quarter
Mar 30
New
Apr 7
First Quarter

Hourly Weather History & Observations

Time (EDT) Temp. Windchill Dew Point Humidity Pressure Visibility Wind Dir Wind Speed Gust Speed Precip Events Conditions
12:15 AM 25.7 °F 17.1 °F 18.1 °F 73% 29.76 in 10.0 mi SSW 8.1 mph - N/A   Clear
12:35 AM 25.7 °F 15.7 °F 18.1 °F 73% 29.74 in 10.0 mi SSW 10.4 mph - N/A   Clear
12:54 AM 25.3 °F 16.0 °F 18.3 °F 75% 29.74 in 10.0 mi SSW 9.2 mph 16.1 mph N/A   Clear
1:15 AM 25.5 °F 16.2 °F 18.7 °F 75% 29.74 in 10.0 mi SSW 9.2 mph 16.1 mph N/A   Clear
1:35 AM 25.5 °F 14.9 °F 19.2 °F 77% 29.72 in 10.0 mi South 11.5 mph - N/A   Clear
1:54 AM 25.5 °F 15.5 °F 19.4 °F 78% 29.71 in 10.0 mi South 10.4 mph - N/A   Clear
2:15 AM 25.5 °F 14.3 °F 19.9 °F 79% 29.69 in 10.0 mi South 12.7 mph - N/A   Clear
2:35 AM 25.7 °F 15.1 °F 20.3 °F 80% 29.69 in 10.0 mi SSW 11.5 mph - N/A   Scattered Clouds
2:54 AM 26.1 °F 16.8 °F 21.2 °F 82% 29.68 in 10.0 mi South 9.2 mph - N/A   Mostly Cloudy
3:15 AM 26.2 °F 17.1 °F 21.6 °F 82% 29.66 in 10.0 mi South 9.2 mph - N/A   Mostly Cloudy
3:34 AM 26.2 °F 16.4 °F 21.9 °F 84% 29.64 in 7.0 mi South 10.4 mph 16.1 mph N/A   Scattered Clouds
3:55 AM 26.6 °F 16.8 °F 23.0 °F 86% 29.63 in 7.0 mi South 10.4 mph 17.3 mph N/A   Clear
4:15 AM 27.0 °F 15.6 °F 23.5 °F 87% 29.61 in 7.0 mi South 13.8 mph 18.4 mph N/A   Scattered Clouds
4:34 AM 27.5 °F 15.9 °F 24.6 °F 89% 29.59 in 7.0 mi South 15.0 mph 24.2 mph N/A   Mostly Cloudy
4:55 AM 28.2 °F 16.3 °F 25.5 °F 90% 29.56 in 7.0 mi South 16.1 mph 23.0 mph N/A   Scattered Clouds
5:14 AM 29.1 °F 16.7 °F 26.4 °F 90% 29.55 in 5.0 mi South 18.4 mph 25.3 mph N/A   Mostly Cloudy
5:35 AM 30.0 °F 17.9 °F 27.3 °F 90% 29.53 in 5.0 mi South 18.4 mph 25.3 mph N/A   Overcast
5:55 AM 30.2 °F 18.1 °F 27.5 °F 90% 29.52 in 5.0 mi SSW 18.4 mph 28.8 mph N/A   Scattered Clouds
6:14 AM 30.6 °F 19.4 °F 28.2 °F 91% 29.51 in 5.0 mi SSW 16.1 mph 24.2 mph N/A   Clear
6:35 AM 31.1 °F 20.1 °F 28.8 °F 91% 29.49 in 5.0 mi South 16.1 mph - N/A   Clear
6:55 AM 31.6 °F 20.7 °F 28.9 °F 90% 29.48 in 7.0 mi SSW 16.1 mph 25.3 mph N/A   Clear
7:14 AM 31.8 °F 22.3 °F 28.9 °F 89% 29.47 in 7.0 mi SSW 12.7 mph 20.7 mph N/A   Clear
7:35 AM 32.0 °F 21.2 °F 29.1 °F 89% 29.46 in 7.0 mi SSW 16.1 mph 23.0 mph N/A   Clear
7:54 AM 32.0 °F 27.5 °F 29.1 °F 89% 29.49 in 5.0 mi WNW 4.6 mph - N/A   Clear
8:15 AM 31.8 °F - 28.9 °F 89% 29.48 in 5.0 mi Calm Calm - N/A   Clear
8:35 AM 31.6 °F 26.0 °F 28.4 °F 88% 29.46 in 5.0 mi South 5.8 mph - N/A   Clear
8:54 AM 32.0 °F 26.4 °F 29.1 °F 89% 29.45 in 7.0 mi South 5.8 mph - N/A   Clear
9:15 AM 33.3 °F 28.9 °F 29.5 °F 86% 29.44 in 7.0 mi South 4.6 mph - N/A   Clear
9:35 AM 34.5 °F 30.4 °F 30.0 °F 84% 29.44 in 7.0 mi SSW 4.6 mph - N/A   Clear
9:54 AM 36.7 °F 32.9 °F 30.9 °F 80% 29.42 in 10.0 mi SSW 4.6 mph - N/A   Clear
10:15 AM 39.7 °F 35.6 °F 31.5 °F 72% 29.42 in 10.0 mi SW 5.8 mph - N/A   Scattered Clouds
10:34 AM 41.5 °F 34.6 °F 31.6 °F 68% 29.41 in 10.0 mi SW 12.7 mph - N/A   Scattered Clouds
10:55 AM 41.9 °F 35.9 °F 31.5 °F 66% 29.40 in 10.0 mi SSW 10.4 mph 19.6 mph N/A   Scattered Clouds
11:14 AM 42.8 °F 36.6 °F 31.5 °F 64% 29.39 in 10.0 mi SSW 11.5 mph 16.1 mph N/A   Scattered Clouds
11:35 AM 44.1 °F 38.6 °F 31.6 °F 62% 29.39 in 10.0 mi WSW 10.4 mph 17.3 mph N/A   Scattered Clouds
11:55 AM 44.2 °F 38.8 °F 31.8 °F 62% 29.38 in 10.0 mi WSW 10.4 mph 17.3 mph N/A   Mostly Cloudy
12:14 PM 44.6 °F 40.2 °F 32.0 °F 61% 29.38 in 10.0 mi West 8.1 mph 16.1 mph N/A   Mostly Cloudy
12:35 PM 46.2 °F 42.2 °F 32.0 °F 58% 29.39 in 10.0 mi West 8.1 mph 19.6 mph N/A   Overcast
12:54 PM 45.7 °F 41.0 °F 32.0 °F 59% 29.37 in 10.0 mi SW 9.2 mph 19.6 mph N/A   Mostly Cloudy
1:15 PM 46.4 °F 41.1 °F 32.0 °F 57% 29.38 in 10.0 mi West 11.5 mph 21.9 mph N/A   Scattered Clouds
1:35 PM 47.7 °F - 32.0 °F 55% 29.37 in 10.0 mi WSW 9.2 mph - N/A   Clear
1:54 PM 47.5 °F - 32.2 °F 55% 29.35 in 10.0 mi West 10.4 mph 16.1 mph N/A   Clear
2:15 PM 46.2 °F 40.8 °F 32.0 °F 58% 29.36 in 10.0 mi WSW 11.5 mph 19.6 mph N/A   Scattered Clouds
2:34 PM 47.3 °F - 32.2 °F 56% 29.34 in 10.0 mi WNW 6.9 mph 17.3 mph N/A   Scattered Clouds
2:55 PM 49.1 °F - 32.2 °F 52% 29.33 in 10.0 mi West 6.9 mph - N/A   Scattered Clouds
3:14 PM 47.7 °F - 32.0 °F 55% 29.35 in 10.0 mi WSW 13.8 mph 19.6 mph N/A   Mostly Cloudy
3:35 PM 46.6 °F - 32.0 °F 57% 29.36 in 10.0 mi West 11.5 mph 17.3 mph N/A   Overcast
3:55 PM 45.5 °F 41.3 °F 32.2 °F 60% 29.36 in 10.0 mi West 8.1 mph - N/A Rain Light Rain
4:14 PM 43.5 °F 36.7 °F 33.8 °F 69% 29.37 in 10.0 mi West 13.8 mph 17.3 mph N/A Rain Rain
4:35 PM 41.9 °F 36.9 °F 34.7 °F 76% 29.37 in 10.0 mi West 8.1 mph - N/A   Drizzle
4:54 PM 41.4 °F 37.6 °F 36.0 °F 81% 29.37 in 7.0 mi West 5.8 mph - N/A   Drizzle
5:15 PM 40.3 °F 36.3 °F 36.1 °F 85% 29.38 in 7.0 mi WNW 5.8 mph - N/A   Light Drizzle
5:34 PM 39.2 °F 33.0 °F 36.0 °F 88% 29.39 in 7.0 mi West 9.2 mph 18.4 mph N/A Rain Light Rain
5:55 PM 37.9 °F 32.1 °F 35.6 °F 91% 29.39 in 7.0 mi West 8.1 mph - N/A   Drizzle
6:15 PM 37.4 °F 32.8 °F 35.4 °F 93% 29.39 in 3.0 mi WSW 5.8 mph - N/A Rain Rain
6:34 PM 36.9 °F 32.2 °F 35.6 °F 95% 29.40 in 4.0 mi West 5.8 mph - N/A Rain Light Rain
6:55 PM 36.0 °F 29.0 °F 34.7 °F 95% 29.42 in 3.0 mi West 9.2 mph 17.3 mph N/A Rain Light Rain
7:15 PM 33.8 °F 25.8 °F 32.9 °F 96% 29.43 in 1.5 mi West 10.4 mph 16.1 mph N/A Snow Light Snow
7:34 PM 33.3 °F 25.1 °F 32.4 °F 96% 29.44 in 1.2 mi West 10.4 mph 18.4 mph N/A Snow Light Snow
7:45 PM 33.4 °F 26.6 °F 32.9 °F 98% 29.45 in 4.0 mi West 8.1 mph - N/A Snow Light Snow
8:15 PM 33.4 °F 26.6 °F 32.9 °F 98% 29.47 in 3.0 mi West 8.1 mph - N/A Snow Light Snow
8:34 PM 33.3 °F 25.1 °F 32.5 °F 97% 29.47 in 3.0 mi West 10.4 mph - N/A Snow Light Snow
8:55 PM 33.6 °F 25.6 °F 32.9 °F 97% 29.48 in 5.0 mi West 10.4 mph 16.1 mph N/A Snow Light Snow
9:14 PM 33.4 °F 26.6 °F 32.9 °F 98% 29.49 in 4.0 mi West 8.1 mph - N/A Snow Light Snow
9:35 PM 33.8 °F 26.4 °F 32.9 °F 96% 29.50 in 7.0 mi West 9.2 mph 16.1 mph N/A Rain Light Rain
9:55 PM 33.8 °F 25.8 °F 32.9 °F 96% 29.51 in 5.0 mi West 10.4 mph - N/A Snow Light Snow
10:14 PM 33.6 °F 25.0 °F 32.7 °F 96% 29.52 in 5.0 mi NW 11.5 mph 16.1 mph N/A   Overcast
10:35 PM 33.1 °F 27.7 °F 32.2 °F 96% 29.53 in 5.0 mi WNW 5.8 mph - N/A   Overcast
10:55 PM 32.9 °F 24.1 °F 32.0 °F 96% 29.54 in 5.0 mi WNW 11.5 mph 16.1 mph N/A   Overcast
11:14 PM 32.9 °F 25.9 °F 32.0 °F 96% 29.55 in 3.0 mi WNW 8.1 mph - N/A Snow Light Snow
11:35 PM 32.7 °F 26.4 °F 32.0 °F 97% 29.56 in 2.5 mi West 6.9 mph - N/A Snow Light Snow
11:55 PM 32.5 °F 24.8 °F 32.0 °F 98% 29.56 in 3.0 mi West 9.2 mph - N/A Snow Light Snow